Flag for India Weather past 2 weeks in Silvassa, Dadra and Nagar Haveli, India

Now
86 °F

Haze.


Feels Like: 92 °F
Forecast: 75 / 103 °F
Wind: 7 mph from Southeast

Location: Bombay / Santacruz

Current Time: Oct 20, 2014 at 10:56:54 AM

Latest Report: Oct 20, 2014 at 8:40 AM


Visibility: 2 mi

Pressure: 29.89 "Hg

Humidity: 62%

Dew point: 72 °F

Location of SilvassaLocation

Historic Weather in Silvassa — Graph

°F

Silvassa temperature yesterday

Maximum temperature yesterday: 95 °F (at 11:10 AM)
Minimum temperature yesterday: 82 °F (at 4:10 AM)
Average temperature yesterday: 88 °F

Past Weeks' High & Low Weather Summary

 TemperatureHumidityPressure
High99 °F (Oct 11, 1:10 PM)94% (Oct 10, 5:10 AM)29.92 "Hg (Oct 10, 5:10 AM)
Low77 °F (Oct 7, 6:40 PM)29% (Oct 12, 1:10 PM)29.65 "Hg (Oct 11, 4:10 PM)
Average87 °F68%29.80 "Hg
* Reported Oct 5 8:40 AM — Oct 20 8:40 AM, Silvassa, Weather by CustomWeather, © 2014

Note: Actual official high and low records may vary slightly from our data, if they occured in-between our weather recording intervals... More about our weather records

Advertising

Silvassa weather history for previous 24 hours

 ConditionsComfort  
Time TempWeatherWind HumidityBarometerVisibility
8:40 AM
Oct 20
86 °FHaze.7 mph62%29.89 "Hg2 mi
8:10 AM86 °FHaze.5 mph66%29.86 "Hg2 mi
7:40 AM84 °FHaze.5 mph70%29.86 "Hg2 mi
7:10 AM82 °FHaze.5 mph70%29.86 "Hg2 mi
6:40 AM82 °FHaze.3 mph70%29.83 "Hg2 mi
6:10 AM82 °FHaze.3 mph70%29.83 "Hg2 mi
5:10 AM84 °FHaze.3 mph66%29.80 "Hg2 mi
4:40 AM84 °FHaze.3 mph66%29.80 "Hg2 mi
4:10 AM84 °FHaze.3 mph66%29.80 "Hg2 mi
3:10 AM84 °FHaze.3 mph66%29.80 "Hg1 mi
2:40 AM84 °FHaze.6 mph62%29.80 "Hg1 mi
1:40 AM84 °FHaze.3 mph70%29.80 "Hg1 mi
1:10 AM84 °FPassing clouds.No wind70%29.83 "Hg1 mi
12:40 AM84 °FPassing clouds.3 mph70%29.83 "Hg1 mi
12:10 AM86 °FPassing clouds.3 mph66%29.83 "Hg1 mi
11:40 PM
Oct 19
86 °FPassing clouds.No wind70%29.83 "Hg1 mi
11:10 PM84 °FPassing clouds.No wind74%29.86 "Hg1 mi
10:40 PM84 °FHaze.5 mph74%29.86 "Hg1 mi
10:10 PM86 °FHaze.3 mph70%29.86 "Hg1 mi
9:40 PM86 °FHaze.6 mph66%29.86 "Hg1 mi
9:10 PM88 °FHaze.3 mph62%29.86 "Hg1 mi
8:40 PM88 °FPassing clouds.3 mph62%29.83 "Hg1 mi
8:10 PM86 °FPassing clouds.3 mph59%29.83 "Hg1 mi
7:40 PM86 °FThunderstorms. Passing clouds.6 mph62%29.83 "Hg1 mi
7:10 PM86 °FThunderstorms. Passing clouds.5 mph59%29.80 "Hg1 mi
6:10 PM90 °FPassing clouds.7 mph63%29.80 "Hg2 mi
5:40 PM91 °FPassing clouds.7 mph56%29.77 "Hg2 mi
5:10 PM91 °FPassing clouds.9 mph56%29.77 "Hg2 mi
4:40 PM91 °FPassing clouds.10 mph52%29.77 "Hg2 mi
4:10 PM91 °FPassing clouds.9 mph56%29.77 "Hg2 mi
3:40 PM91 °FPassing clouds.10 mph56%29.74 "Hg2 mi
3:10 PM91 °FPassing clouds.12 mph56%29.77 "Hg2 mi
2:40 PM91 °FPassing clouds.12 mph56%29.77 "Hg2 mi
1:40 PM93 °FClear.10 mph49%29.80 "Hg1 mi
1:10 PM93 °FClear.8 mph49%29.80 "Hg2 mi
12:10 PM93 °FClear.9 mph49%29.83 "Hg2 mi
11:40 AM95 °FClear.3 mph44%29.86 "Hg2 mi
11:10 AM95 °FPassing clouds.5 mph47%29.86 "Hg2 mi
10:40 AM93 °FPassing clouds.5 mph49%29.86 "Hg2 mi
10:10 AM91 °FPassing clouds.7 mph52%29.86 "Hg2 mi
Weather by CustomWeather, © 2014

See weather overviewHow to use our weather pages